This is the latest recevied weather packets stored in our database for station/object KC5DAQ-25. If no packets are shown the sender has not sent any weather packets the latest 10 day(s).
| Time | Temp. | Humidity | Pressure | Rain* | Wind** | Luminosity | Snow |
|---|---|---|---|---|---|---|---|
| 1778355586 | 31.11° C | 73% | 1000.3 hPa | 0 mm | - | 969 W/m² | - |
| 1778355525 | 30.56° C | 71% | 1000.4 hPa | 0 mm | - | 969 W/m² | - |
| 1778355464 | 30.56° C | 71% | 1000.4 hPa | 0 mm | - | 969 W/m² | - |
| 1778355404 | 31.11° C | 71% | 1000.4 hPa | 0 mm | - | 969 W/m² | - |
| 1778355344 | 31.11° C | 71% | 1000.4 hPa | 0 mm | - | 971 W/m² | - |
| 1778355283 | 31.11° C | 71% | 1000.5 hPa | 0 mm | - | 971 W/m² | - |
| 1778355223 | 31.11° C | 71% | 1000.4 hPa | 0 mm | - | 971 W/m² | - |
| 1778355165 | 31.11° C | 71% | 1000.5 hPa | 0 mm | - | 971 W/m² | - |
| 1778355105 | 31.11° C | 70% | 1000.4 hPa | 0 mm | - | 498 W/m² | - |
| 1778355043 | 31.11° C | 70% | 1000.6 hPa | 0 mm | - | 498 W/m² | - |
| 1778354984 | 31.11° C | 73% | 1000.6 hPa | 0 mm | - | 498 W/m² | - |
| 1778354923 | 31.11° C | 71% | 1000.6 hPa | 0 mm | - | 624 W/m² | - |
| 1778354864 | 31.11° C | 71% | 1000.6 hPa | 0 mm | - | 624 W/m² | - |
| 1778354804 | 31.11° C | 71% | 1000.7 hPa | 0 mm | - | 624 W/m² | - |
| 1778354743 | 30.56° C | 71% | 1000.7 hPa | 0 mm | - | 624 W/m² | - |
| 1778354683 | 30.56° C | 71% | 1000.7 hPa | 0 mm | - | 624 W/m² | - |
| 1778354625 | 30.56° C | 71% | 1000.7 hPa | 0 mm | - | 902 W/m² | - |
| 1778354563 | 30.56° C | 70% | 1000.8 hPa | 0 mm | - | 1247 W/m² | - |
| 1778354508 | 30.56° C | 72% | 1000.8 hPa | 0 mm | - | 1247 W/m² | - |
| 1778354443 | 31.11° C | 72% | 1000.8 hPa | 0 mm | - | 1247 W/m² | - |
| 1778354384 | 31.11° C | 72% | 1000.8 hPa | 0 mm | - | 1247 W/m² | - |
| 1778354324 | 31.11° C | 73% | 1000.8 hPa | 0 mm | - | 1247 W/m² | - |
| 1778354264 | 31.11° C | 72% | 1000.9 hPa | 0 mm | - | 1247 W/m² | - |
| 1778354203 | 31.11° C | 71% | 1000.8 hPa | 0 mm | - | 1247 W/m² | - |
| 1778354145 | 31.11° C | 71% | 1000.9 hPa | 0 mm | - | 1162 W/m² | - |
* Rain latest hour (hover to see other rain measurements)
** Current wind speed in m/s (hover to see current wind gust speed)